Satellite-Ground Cal/Val Site Overpasses Predictions

Prediction of Satellite NPP Overpassing Cal/Val Site: Antarctic Dome C

Ground Cal/Val Site Location: Latitude: -75.10, Longitude: 123.35; Satellite-Ground Site NADIR distance within 100 km.

Table of predicted overpasses for the next 14.0 days since TLE Epoch: 8/1/2014
Interval Starting Time Ending Time Minimum Distance Time Minimum Distance (km)
1 08/01/2014 15:02:36 08/01/2014 15:03:04 08/01/2014 15:02:50 27.16
2 08/02/2014 14:43:50 08/02/2014 14:44:07 08/02/2014 14:43:58 80.16
3 08/03/2014 07:45:22 08/03/2014 07:45:50 08/03/2014 07:45:36 31.74
4 08/04/2014 07:26:36 08/04/2014 07:26:53 08/04/2014 07:26:45 78.59
5 08/06/2014 15:08:45 08/06/2014 15:09:08 08/06/2014 15:08:57 62.70
6 08/07/2014 14:49:52 08/07/2014 14:50:17 08/07/2014 14:50:04 46.84
7 08/08/2014 07:51:31 08/08/2014 07:51:53 08/08/2014 07:51:42 65.44
8 08/09/2014 07:32:37 08/09/2014 07:33:03 08/09/2014 07:32:50 42.80
9 08/11/2014 15:15:00 08/11/2014 15:15:04 08/11/2014 15:15:02 98.73
10 08/12/2014 14:55:56 08/12/2014 14:56:25 08/12/2014 14:56:11 12.99
11 08/13/2014 07:57:45 08/13/2014 07:57:49 08/13/2014 07:57:47 98.43


NCC Satellite Cal/Val Overpasses Prediction Service
